Weather in Ryaymyalya

Russia / Republic of Karelia     61°21′11″N   31°58′10″E
temp.,
°C
wind,
m/s
gust,
m/s
humid.,
%
clouds,
%
prec.,
mm/h
press.,
hPa
HPBL,
m
27 july, tue
tue2700:00+16n22825 0.7 101911
03:00+16ene11805 0.7 101911
06:00+16sse228187 0.0 102011
09:00+18se227523 0.1 101973
12:00+19ssw33725 0.3 1019250
15:00+19sw23664 0.3 1018258
18:00+20s35684 0.0 1017141
21:00+19e47755 0.0 1016122
28 july, wed
wed2800:00+17e49905 0.0 1016119
03:00+16e5989100 0.0 1015128
06:00+16e4782100 0.0 1013120
09:00+19se3572100 0.0 1012162
12:00+19s4671100 0.0 1011284
15:00+19sse3470100 0.0 1010184
18:00+20sse1171100 0.0 100765
21:00+16sse3396100 0.8 100748
29 july, thu
thu2900:00+17sse2289100 0.5 100617
03:00+16se3595100 0.6 100491
06:00+16se359770 0.6 1003109
09:00+16s459599 0.8 1002226
12:00+18sw3487100 0.0 1002285
15:00+17ssw5793100 1.9 1000128
18:00+18sw51181100 1.1 999254
21:00+17wsw511895 2.4 999176
30 july, fri
fri3000:00+17wsw7158018 0.8 999274
03:00+16wsw71387100 0.8 999323
06:00+16sw611895 0.0 1000349
09:00+16sw61090100 0.2 1000360
12:00+17s6108273 0.3 1000514
15:00+18ssw71175100 0.8 999514
18:00+18s7127292 0.1 998377
21:00+17ssw61277100 0.1 997200
31 july, sat
sat3100:00+17ssw61174100 0.3 997272
03:00+16s71280100 0.6 995260
06:00+15ssw111487100 1.0 993702
09:00+14s111492100 3.4 992667
12:00+15ssw11159396 1.7 991674
15:00+17ssw8128720 3.0 991493
18:00+17wsw914785 0.4 993625
21:00+17wsw813815 0.4 994274